Location: Jetmore Motorplex
(37.9889°N, 99.8876°W)
Time: 04:21:59
(UTC+00:00)

STARLINK-81 - Pass Details

Date: 17 February 2020
Orbit: 529 x 530 km, 53.0° (Epoch: 31 March)

Event Time Altitude Azimuth Distance (km) Brightness Sun altitude
Rises 01:34:13 0° 217° (SW) 2,653 7.7 -15.4°
Reaches altitude 10° 01:36:26 10° 214° (SW) 1,770 6.7 -15.9°
Maximum altitude 01:40:23 59° 134° (SE) 618 3.6 -16.6°
Enters shadow 01:41:51 35° 71° (ENE) 873 4.1 -16.9°
